Weather reports worldwide

Advertisment
Aultbea, United Kingdom (3034): temperature & dewpoint: 07.12.2017 13:00:00 - 13.12.2017 13:00:00 (GMT)Aultbea, United Kingdom (3034): temperature -20cm & temperature -100cm: 07.12.2017 13:00:00 - 13.12.2017 13:00:00 (GMT)Aultbea, United Kingdom (3034): wind speed & gusts: 07.12.2017 13:00:00 - 13.12.2017 13:00:00 (GMT)Aultbea, United Kingdom (3034): wind direction: 07.12.2017 13:00:00 - 13.12.2017 13:00:00 (GMT)Aultbea, United Kingdom (3034): reduced air pressure: 07.12.2017 13:00:00 - 13.12.2017 13:00:00 (GMT)Aultbea, United Kingdom (3034): visibility: 07.12.2017 13:00:00 - 13.12.2017 13:00:00 (GMT)Aultbea, United Kingdom (3034): precipitation: 07.12.2017 13:00:00 - 13.12.2017 13:00:00 (GMT)
Date & Time tt [°C] td [°C] tt -20cm [°C] tt -100cm [°C] ff [km/h] ff [kn] fx [km/h] fx [kn] dd ppp [hPa] vv [km] rr [mm]
13.12.2017 13:00:00 - - - - - - - - - - - 0,0
13.12.2017 12:00:00 5,0 -0,7 - - 28 15 48 26 W 980,4 35 0,4
13.12.2017 11:00:00 3,8 0,5 - - 26 14 57 31 W 981,2 11 0,2
13.12.2017 10:00:00 5,1 0,6 - - 31 17 48 26 W 980,6 40 0,0
13.12.2017 09:00:00 5,2 2,3 4,2 6,9 24 13 48 26 W 980,8 29 0,0
13.12.2017 08:00:00 5,6 2,9 - - 24 13 48 26 W 981,1 26 0,6
13.12.2017 07:00:00 6,0 3,8 - - 31 17 52 28 SSW 981,3 45 0,0
13.12.2017 06:00:00 5,4 4,0 - - 37 20 54 29 SSW 982,4 13 1,6
13.12.2017 05:00:00 5,7 2,9 - - 28 15 - - S 983,4 21 0,0
13.12.2017 04:00:00 6,0 3,3 - - 24 13 - - S 985,4 25 0,0
13.12.2017 03:00:00 5,7 3,2 - - 29 16 - - SSW 987,1 21 0,0
13.12.2017 02:00:00 5,0 2,6 - - 16 9 - - SW 988,5 23 1,0
13.12.2017 01:00:00 5,9 2,5 - - 22 12 - - WSW 989,1 27 0,0
13.12.2017 00:00:00 5,9 1,7 - - 26 14 46 25 WSW 989,7 30 0,0
12.12.2017 23:00:00 6,0 2,7 - - 24 13 52 28 W 990,0 23 0,0
12.12.2017 22:00:00 6,7 2,4 - - 28 15 46 25 W 990,0 18 0,0
12.12.2017 21:00:00 5,3 3,3 - - 13 7 - - SW 990,4 30 0,4
12.12.2017 20:00:00 4,6 3,0 - - 29 16 48 26 S 990,5 17 0,4
12.12.2017 19:00:00 4,7 2,0 - - 35 19 48 26 S 990,2 40 0,0
12.12.2017 18:00:00 4,9 2,5 - - 28 15 48 26 S 990,5 22 0,2
12.12.2017 17:00:00 5,0 2,4 - - 28 15 46 25 S 991,6 30 0,0
12.12.2017 16:00:00 5,2 2,8 - - 29 16 - - S 992,8 30 0,0
12.12.2017 15:00:00 5,2 2,5 - - 22 12 - - S 994,0 50 0,0
12.12.2017 14:00:00 5,3 2,0 - - 24 13 - - S 995,0 50 0,0
12.12.2017 13:00:00 4,8 1,8 - - 18 10 - - S 996,4 40 0,0
12.12.2017 12:00:00 3,8 1,8 - - 15 8 - - SE 997,7 45 0,0
12.12.2017 11:00:00 3,0 1,3 - - 13 7 - - S 998,8 40 0,0
12.12.2017 10:00:00 2,0 0,9 - - 15 8 - - SSE 999,3 50 0,0
12.12.2017 09:00:00 1,7 0,7 4,0 7,2 15 8 - - SSE 999,8 30 0,2
12.12.2017 08:00:00 1,8 1,0 - - 18 10 - - S 1000,2 35 0,0
12.12.2017 07:00:00 1,8 1,0 - - 9 5 - - SE 1000,7 45 0,0
12.12.2017 06:00:00 1,9 0,7 - - 9 5 - - E 1001,0 50 0,0
12.12.2017 05:00:00 1,9 0,9 - - 13 7 - - SE 1001,2 45 0,0
12.12.2017 04:00:00 1,3 0,6 - - 9 5 - - ESE 1001,6 40 0,0
12.12.2017 03:00:00 1,7 1,0 - - 9 5 - - SE 1001,2 40 0,0
12.12.2017 02:00:00 1,1 0,4 - - 8 4 - - E 1001,7 45 0,0
12.12.2017 01:00:00 1,2 0,6 - - 8 4 - - ESE 1001,7 40 0,0
12.12.2017 00:00:00 0,6 -0,1 - - 8 4 - - E 1001,2 40 0,0
11.12.2017 23:00:00 0,9 0,3 - - 8 4 - - E 1000,6 45 0,0
11.12.2017 22:00:00 1,5 1,0 - - 4 2 - - ESE 1000,1 45 0,0
11.12.2017 21:00:00 1,5 0,9 - - 5 3 - - E 1000,1 40 0,0
11.12.2017 20:00:00 1,7 1,0 - - 5 3 - - ENE 1000,2 35 0,2
11.12.2017 19:00:00 2,7 1,7 - - 13 7 - - NE 999,7 14 0,4
11.12.2017 18:00:00 2,3 0,8 - - 5 3 - - NNE 998,3 45 0,4
11.12.2017 17:00:00 3,7 2,1 - - 9 5 - - N 997,4 30 0,4
11.12.2017 16:00:00 1,5 0,7 - - 2 1 - - N 996,7 23 0,0
11.12.2017 15:00:00 1,9 0,5 - - 5 3 - - ENE 995,9 29 0,2
11.12.2017 14:00:00 4,4 0,6 - - 13 7 - - N 995,0 40 0,0
11.12.2017 13:00:00 4,7 2,8 - - 4 2 - - N 994,3 23 0,0
11.12.2017 12:00:00 2,8 2,2 - - 5 3 - - NNE 993,5 28 0,8
11.12.2017 11:00:00 2,0 1,4 - - 5 3 - - ESE 992,8 28 1,2
11.12.2017 10:00:00 1,7 1,1 - - 8 4 - - E 991,7 28 0,6
11.12.2017 09:00:00 2,8 2,0 4,4 7,4 8 4 - - W 991,3 5 1,4
11.12.2017 08:00:00 2,5 1,6 - - 8 4 - - ENE 990,0 10 3,4
11.12.2017 07:00:00 2,5 2,1 - - 11 6 - - E 989,1 35 0,0
11.12.2017 06:00:00 1,7 1,2 - - 4 2 - - ESE 988,3 28 0,2
11.12.2017 05:00:00 1,8 1,4 - - 4 2 - - SE 987,6 5 0,6
11.12.2017 04:00:00 1,5 0,9 - - 2 1 - - E 986,8 30 0,8
11.12.2017 03:00:00 1,9 1,4 - - 9 5 - - E 986,2 29 0,8
11.12.2017 02:00:00 1,2 0,4 - - 2 1 - - E 985,5 50 0,4
11.12.2017 01:00:00 2,6 1,0 - - 4 2 - - N 984,8 50 0,4
11.12.2017 00:00:00 2,6 1,3 - - 9 5 - - NE 983,8 35 0,0
10.12.2017 23:00:00 2,9 1,3 - - 9 5 - - N 983,1 40 0,6
10.12.2017 22:00:00 3,1 1,8 - - 11 6 - - N 982,3 50 1,0
10.12.2017 21:00:00 3,8 2,5 - - 16 9 - - W 981,5 14 0,6
10.12.2017 20:00:00 3,1 1,8 - - 13 7 - - WSW 981,5 20 0,8
10.12.2017 19:00:00 1,8 0,8 - - 11 6 - - SSE 982,0 30 0,0
10.12.2017 18:00:00 1,5 0,4 - - 15 8 - - S 981,8 35 0,2
10.12.2017 17:00:00 1,5 0,7 - - 13 7 - - S 982,1 30 0,2
10.12.2017 16:00:00 1,2 0,5 - - 11 6 - - S 982,1 40 0,0
10.12.2017 15:00:00 1,0 0,1 - - 11 6 - - S 982,4 27 1,6
10.12.2017 14:00:00 1,0 0,0 - - 9 5 - - SSE 982,8 30 0,0
10.12.2017 13:00:00 0,9 0,0 - - 11 6 - - SSE 983,4 30 0,0
10.12.2017 12:00:00 0,2 -0,7 - - 13 7 - - SSE 984,0 35 0,0
10.12.2017 11:00:00 0,1 -0,6 - - 9 5 - - SSE 984,7 11 0,0
10.12.2017 10:00:00 -0,2 -0,6 - - 11 6 - - SSE 985,4 30 0,0
10.12.2017 09:00:00 0,1 -0,3 4,9 7,7 9 5 - - SE 986,1 1,8 0,0
10.12.2017 08:00:00 -0,2 -0,8 - - 8 4 - - ESE 986,8 4,2 0,0
10.12.2017 07:00:00 -0,2 -1,0 - - 11 6 - - SSE 987,7 30 0,0
10.12.2017 06:00:00 -1,3 -2,4 - - 0 0 - - N 988,8 29 0,0
10.12.2017 05:00:00 0,5 -1,3 - - 9 5 - - E 989,9 35 0,0
10.12.2017 04:00:00 0,2 -3,2 - - 4 2 - - SE 991,5 30 0,0
10.12.2017 03:00:00 0,9 -3,0 - - 9 5 - - N 993,1 30 0,2
10.12.2017 02:00:00 2,3 -1,3 - - 15 8 - - WNW 994,7 28 0,2
10.12.2017 01:00:00 -0,1 -1,4 - - 5 3 - - NNE 996,0 40 0,0
10.12.2017 00:00:00 2,2 -2,1 - - 11 6 - - NNW 997,3 35 0,0
09.12.2017 23:00:00 3,3 -1,9 - - 18 10 - - WNW 998,3 20 0,0
09.12.2017 22:00:00 2,9 -1,7 - - 18 10 - - NW 999,8 20 0,0
09.12.2017 21:00:00 3,5 -1,4 - - 16 9 - - NW 1001,0 22 0,0
09.12.2017 20:00:00 3,1 -1,2 - - 18 10 - - NNW 1002,2 22 0,0
09.12.2017 19:00:00 3,1 -1,5 - - 18 10 - - WNW 1003,6 23 0,0
09.12.2017 18:00:00 3,3 -1,0 - - 13 7 - - NW 1004,5 21 0,0
09.12.2017 17:00:00 2,9 -1,6 - - 11 6 - - NW 1005,6 26 0,0
09.12.2017 16:00:00 2,5 -2,2 - - 11 6 - - NW 1006,5 19 0,0
09.12.2017 15:00:00 2,8 -1,7 - - 22 12 - - WNW 1007,4 35 0,0
09.12.2017 14:00:00 3,1 -2,2 - - 16 9 - - NW 1008,6 27 0,0
09.12.2017 13:00:00 2,9 -2,6 - - 15 8 - - NW 1009,5 23 0,0
09.12.2017 12:00:00 3,2 -0,8 - - 18 10 - - WNW 1010,4 19 0,0
09.12.2017 11:00:00 2,9 -2,4 - - 21 11 - - NNW 1011,2 35 0,0
09.12.2017 10:00:00 3,0 -1,6 - - 18 10 46 25 NW 1011,9 19 0,0
09.12.2017 09:00:00 2,8 -2,5 5,4 7,7 16 9 - - NNW 1012,4 30 0,2
09.12.2017 08:00:00 3,2 -1,5 - - 21 11 - - NW 1013,0 17 0,0
09.12.2017 07:00:00 2,4 0,6 - - 24 13 48 26 W 1013,4 15 0,4
09.12.2017 06:00:00 3,0 -1,9 - - 22 12 50 27 NW 1014,1 24 0,0
09.12.2017 05:00:00 2,5 0,9 - - 18 10 61 33 NW 1014,4 14 0,2
09.12.2017 04:00:00 1,3 -0,1 - - 22 12 57 31 NW 1015,1 35 1,0
09.12.2017 03:00:00 2,8 0,5 - - 28 15 46 25 NW 1015,5 9 0,0
09.12.2017 02:00:00 3,0 0,1 - - 29 16 50 27 WNW 1015,8 30 0,0
09.12.2017 01:00:00 2,8 1,0 - - 29 16 48 26 WNW 1016,4 19 0,0
09.12.2017 00:00:00 2,9 0,5 - - 24 13 52 28 WNW 1016,6 14 0,2
08.12.2017 23:00:00 2,6 -0,4 - - 24 13 48 26 NW 1016,7 15 2,2
08.12.2017 22:00:00 3,4 1,2 - - 31 17 50 27 WNW 1016,7 6 0,0
08.12.2017 21:00:00 2,8 0,4 - - 31 17 54 29 WNW 1016,3 14 0,0
08.12.2017 20:00:00 2,3 0,6 - - 24 13 59 32 WNW 1016,7 11 0,0
08.12.2017 19:00:00 3,1 1,1 - - 28 15 57 31 NW 1016,1 14 1,2
08.12.2017 18:00:00 1,9 -0,6 - - 31 17 59 32 NNW 1015,9 4,4 0,8
08.12.2017 17:00:00 3,5 1,2 - - 34 18 63 34 WNW 1015,0 10 1,0
08.12.2017 16:00:00 3,2 -0,8 - - 34 18 74 40 NW 1014,4 18 0,4
08.12.2017 15:00:00 2,0 0,3 - - 34 18 65 35 WNW 1014,1 11 0,2
08.12.2017 14:00:00 1,3 -0,5 - - 26 14 65 35 NW 1014,3 14 0,4
08.12.2017 13:00:00 2,8 -0,8 - - 35 19 61 33 NW 1014,0 9 0,0
08.12.2017 12:00:00 2,3 -0,9 - - 37 20 65 35 NW 1013,3 9 0,0
08.12.2017 11:00:00 1,6 -0,3 - - 37 20 76 41 NW 1013,4 8 0,0
08.12.2017 10:00:00 2,5 -2,6 - - 31 17 65 35 NW 1012,6 13 0,0
08.12.2017 09:00:00 2,4 -2,2 6,5 7,9 37 20 67 36 NW 1011,9 11 0,2
08.12.2017 08:00:00 1,1 -2,9 - - 37 20 68 37 NW 1011,8 15 0,0
08.12.2017 07:00:00 2,4 -1,3 - - 41 22 76 41 WNW 1011,0 9 0,0
08.12.2017 06:00:00 2,9 -3,5 - - 35 19 67 36 NW 1009,8 12 0,2
08.12.2017 05:00:00 1,5 -1,9 - - 34 18 68 37 NNW 1009,4 9 0,2
08.12.2017 04:00:00 3,4 -2,7 - - 42 23 67 36 NW 1008,4 15 0,0
08.12.2017 03:00:00 2,0 -2,0 - - 42 23 74 40 WNW 1008,4 5 1,8
08.12.2017 02:00:00 1,8 -0,7 - - 46 25 76 41 WNW 1008,0 8 0,0
08.12.2017 01:00:00 0,1 -2,9 - - 35 19 68 37 NW 1007,8 2,7 0,2
08.12.2017 00:00:00 3,1 -3,4 - - 34 18 68 37 NW 1006,8 14 0,0
07.12.2017 23:00:00 2,9 -4,7 - - 29 16 67 36 NNW 1005,9 18 0,0
07.12.2017 22:00:00 3,3 -1,5 - - 31 17 68 37 NW 1004,8 11 0,2
07.12.2017 21:00:00 3,2 -1,1 - - 39 21 68 37 WNW 1004,1 12 0,2
07.12.2017 20:00:00 3,9 -1,1 - - 24 13 57 31 NW 1003,5 10 0,0
07.12.2017 19:00:00 4,1 -2,4 - - 28 15 57 31 NW 1002,7 12 0,0
07.12.2017 18:00:00 4,0 -1,8 - - 29 16 65 35 NW 1001,8 10 0,0
07.12.2017 17:00:00 4,8 -0,1 - - 26 14 67 36 NW 1000,1 9 0,0
07.12.2017 16:00:00 5,0 -0,4 - - 29 16 65 35 NNW 999,2 10 0,0
07.12.2017 15:00:00 5,1 0,7 - - 29 16 72 39 NW 998,1 7 0,0
07.12.2017 14:00:00 5,8 1,7 - - 37 20 76 41 NW 996,7 8 0,4
07.12.2017 13:00:00 4,5 2,7 - - 54 29 87 47 WNW 995,7 6 1,0

tt = temperature
td = dewpoint
tt -20cm = temperature -20cm
tt -100cm = temperature -100cm
ff = wind speed
fx = gusts
dd = wind direction
ppp = reduced air pressure
vv = visibility
rr = precipitation

Next stations